Location: Juiz de Fora
(21.7500°S, 43.3330°W)
Time: 06:34:38
(UTC-03:00)

Hubble Space Telescope - Pass Details

Date: 20 June 2024
Orbit: 510 x 513 km, 28.5° (Epoch: 16 July)

Event Time Altitude Azimuth Distance (km) Brightness Sun altitude
Rises 18:44:46 0° 283° (WNW) 2,616 5.9 -19.3°
Reaches altitude 10° 18:47:01 10° 280° (W) 1,733 4.6 -19.8°
Maximum altitude 18:51:00 66° 197° (SSW) 565 0.8 -20.7°
Enters shadow 18:51:26 60° 158° (SSE) 594 0.7 -20.8°
